Location: Unspecified
(0.0000°N, 0.0000°E)
Time: 18:59:16
(UTC+00:00)

Vanguard 2 Rocket - Pass Details

Date: 24 January 2020
Orbit: 554 x 3327 km, 32.9° (Epoch: 20 February)

Event Time Altitude Azimuth Distance (km) Brightness Sun altitude
Rises 01:48:36 0° 248° (WSW) 3,615 - -59.4°
Reaches altitude 10° 01:51:49 10° 256° (WSW) 2,344 - -58.8°
Maximum altitude 01:56:27 35° 322° (NW) 1,003 - -57.9°
Drops below altitude 10° 02:00:07 10° 30° (NNE) 1,831 - -57.2°
Sets 02:02:20 0° 40° (NE) 2,706 - -56.7°
